Weather Roundup
Issued by NWS

Home | Current Version | Previous Version | Graphics & Text | Print | Product List | Glossary Off
Versions: 1 2 3 4 5 6 7 8 9 10 11 12 13 14 15 16 17 18 19 20 21 22 23 24 25 26 27 28 29 30 31 32 33 34 35 36 37 38 39 40 41 42 43 44 45 46 47 48 49 50

000
NZUS93 KARX 241210
HRRWXR

CURRENT HOURLY OBSERVATIONS ACROSS
MUCH OF THE UPPER MISSISSIPPI VALLEY
NATIONAL WEATHER SERVICE LA CROSSE WI
700 AM CDT THU JUL 24 2014


...SOUTHEAST MINNESOTA...


CITY           SKY/WX    TMP DP  RH WIND       PRES   REMARKS
ROCHESTER      SUNNY     59  54  83 SE3       30.19S
ROCHESTER/MAYO FAIR      59  55  84 CALM      30.18S
WINONA         CLOUDY    61  59  94 CALM      30.17F
AUSTIN         MOSUNNY   57  55  94 CALM      30.16F
ALBERT LEA     SUNNY     55  55 100 CALM      30.16F
DODGE CENTER   MOSUNNY   57  55  94 CALM      30.17F
PRESTON        SUNNY     56  57 100 CALM      30.19S
OWATONNA       SUNNY     57  55  94 SE3       30.15F
FARIBAULT      SUNNY     57  52  82 CALM      30.15F
$$

...ELSEWHERE IN MINNESOTA...


CITY           SKY/WX    TMP DP  RH WIND       PRES   REMARKS
MINNEAPOLIS    PTSUNNY   65  58  78 E6        30.15F
INTNL FALLS    MOSUNNY   52  50  93 CALM      30.16F
DULUTH         MOSUNNY   59  53  80 SE3       30.17F
RED WING       SUNNY     57  55  94 CALM      30.15F
REDWOOD FALLS  CLEAR     59  55  87 CALM      30.13F
MANKATO        CLEAR     59  54  82 SE5       30.14F
WORTHINGTON    CLEAR     59  55  88 SE3       30.16R
FAIRMONT       CLEAR     57  52  82 CALM      30.14F
$$

...SOUTHWEST WISCONSIN...


CITY           SKY/WX    TMP DP  RH WIND       PRES   REMARKS
LA CROSSE      SUNNY     62  56  80 E5        30.18S
PRAIRIE DU CHI SUNNY     59  54  84 E5        30.18S
BOSCOBEL       SUNNY     56  54  93 CALM      30.20S
LONE ROCK      MOSUNNY   61  55  81 CALM      30.20S
PLATTEVILLE    SUNNY     58  54  86 CALM      30.20S
FORT MC COY    SUNNY     52  50  93 CALM      30.19F
CAMP DOUGLAS   MOSUNNY   55  55 100 CALM      30.20S
VIROQUA        FAIR      58  56  94 CALM      30.20S
WIS DELLS      MOSUNNY   54  50  86 CALM      30.21R
$$

...ELSEWHERE IN WISCONSIN...


CITY           SKY/WX    TMP DP  RH WIND       PRES   REMARKS
MILWAUKEE      MOSUNNY   59  51  75 N6        30.20R
MADISON        MOSUNNY   58  52  80 CALM      30.20R
GREEN BAY      SUNNY     56  52  86 CALM      30.20S
EAU CLAIRE     MOSUNNY   58  56  93 NE3       30.17F
BLACK RVR FLS  CLOUDY    50  50 100 CALM      30.18F FOG
MEDFORD        PTSUNNY   55  52  91 CALM      30.20F
WAUSAU         SUNNY     55  52  89 CALM      30.20S
WIS RAPIDS     SUNNY     55  51  86 CALM      30.21F
MARSHFIELD     SUNNY     57  54  89 S3        30.20S
RICE LAKE      PTSUNNY   56  53  90 CALM      30.20S
$$

...NORTHEAST IOWA...


CITY           SKY/WX    TMP DP  RH WIND       PRES   REMARKS
WATERLOO       SUNNY     56  55  97 CALM      30.16S
DUBUQUE        PTSUNNY   58  52  80 CALM      30.20R
DECORAH        SUNNY     59  57  94 S5        30.17S
MASON CITY     CLEAR     55  54  96 E3        30.17F
CHARLES CITY   SUNNY     59  55  88 CALM      30.17F
OELWEIN        SUNNY     59  57  94 SE7       30.18F
$$

...ELSEWHERE IN IOWA...


CITY           SKY/WX    TMP DP  RH WIND       PRES   REMARKS
DES MOINES     CLEAR     66  60  81 CALM      30.15S
IOWA CITY      SUNNY     61  56  83 VRB3      30.19R
FORT DODGE     CLEAR     59  57  94 E3        30.15F
MARSHALLTOWN   CLEAR     60  58  92 CALM      30.16S
CEDAR RAPIDS   SUNNY     60  57  89 SE3       30.17R
$$

...NORTHERN ILLINOIS...


CITY           SKY/WX    TMP DP  RH WIND       PRES   REMARKS
CHICAGO-OHARE  MOSUNNY   59  50  72 N7        30.17R
DUPAGE         SUNNY     58  53  84 N7        30.17R
CHICAGO-MIDWAY MOSUNNY   63  55  75 N7        30.16R
MOLINE         PTSUNNY   58  55  90 CALM      30.18R
ROCKFORD       MOSUNNY   58  52  80 NE3       30.21S
STERLING       SUNNY     57  52  82 E7        30.19R
PEORIA         SUNNY     61  52  72 CALM      30.17R
$$

NOTE: "FAIR" INDICATES FEW OR NO CLOUDS BELOW 12,000 FEET WITH NO
SIGNIFICANT WEATHER AND/OR OBSTRUCTIONS TO VISIBILITY. WIND
SPEEDS ARE IN MILES-PER-HOUR.



USA.gov is the U.S. government's official web portal to all federal, state and local government web resources and services.